User: anonymous   Login
Location: Unspecified
(0.0000°N, 0.0000°E)
Time: 10:31:35
(UTC+00:00)
Language:

Cosmos 1624 - Orbit

View from above orbital plane
View from above orbital plane
View from above satellite
View from above satellite

Ground track
Ground track

The orbit data is extracted from the following two-line orbital elements,

1 15482U 85006A   18021.51792205 -.00000000 +00000-0 +95029-5 0  9993
2 15482 074.0420 039.9764 0015547 309.6212 217.5002 14.32975578724610
Epoch (UTC): 21 January 2018 12:25:48
Eccentricity: 0.0015547
inclination: 74.0420°
perigee height: 770 km
apogee height: 793 km
right ascension of ascending node: 39.9764°
argument of perigee: 309.6212°
revolutions per day: 14.32975578
mean anomaly at epoch: 217.5002°
orbit number at epoch: 72461

The dashed part of the orbit path shows where the satellite is in the earth's shadow,  

DLR